欧洲卫星公司-12星 (SES-12)

导读 | 豆包AI

SES 12是由欧洲卫星运营商SES全球公司运营的一颗通信卫星,于2018年6月4日在哈萨克斯坦拜科努尔航天发射场搭载猎鹰9号火箭成功发射。该卫星定点于东经95度地球静止轨道,覆盖中东、亚洲及澳大利亚等区域,主要提供高性能电视广播、宽带接入和数据通信服务,支持包括高清电视在内的多媒体传输,显著增强了亚太地区的通信容量与服务可靠性,设计寿命超过15年。

基本信息
目录编号:
43488
目录名称:
SES 12
国际标识:
2018-049A
轨道中心:
EARTH
卫星名称:
欧洲卫星公司-12星
卫星全名:
欧洲卫星公司-12星 (SES-12)
卫星状态:
在轨 (已飞行2840 天)
发射日期:
2018-06-04 UTC
国别 :
(SES)
星等 :
--
轨道信息
数据来源 国际轨道数据 AOE轨道数据
星历时间 2026-03-13T22:08:07+0800
12小时前
查看轨道信息
2026-03-13T05:00:00+0800
1天前
查看轨道信息
半长轴 42164.84km 42164.672km
偏心率 0.0001872 0.0001868
轨道倾角 0.018° 0.016°
近地点辐角 206.909° 211.543°
升交点赤经 95.979° 95.717°
平近点角 175.347° 273.245°
近地点 35778.809km 35778.658km
远地点 35794.597km 35794.412km
周期 1436.102分钟 1436.094分钟
每日圈数 1.002714 1.00272
详细信息
卫星平台:
Eurostar-300EOR
平衡模式:
三轴稳定
覆盖范围:
大西洋
运营商:
欧洲卫星公司
运营商所在国:
卢森堡
制造商(研发单位):
空客防务与航天公司
制造商所在国:
法国大都会
使用方式:
暂无
卫星简介
欧洲卫星公司:成立于1985年,总部设在卢森堡。该公司通过运营ASTRA、AMERICOM及 NEW SKIES卫星系统为客户提供电视、广播和多媒体直接到户的信息传送服务,是世界第二大卫星运营商。该卫星仍在工作。
2D轨道图
3D轨道图
轨道高度分析图
轨道倾角分析图
轨道综合分析图
查看轨道综合分析图